Theta_e
325 325 324 322 321 321 321 321 322 321 321 322 322 321 321 322 322 323 324 325 326 325 325 325 323 323 307 298 301 315 324 324 309 306 302 301 298 297 292 295 295 295 295 296 297 297 296
326 325 324 323 322 321 321 320 321 322 322 322 321 321 321 321 322 322 323 324 325 325 325 323 322 321 299 296 311 313 308 307 306 303 301 301 299 299 296 294 294 294 295 295 295 295 295
326 326 325 324 323 322 321 320 320 322 322 322 322 321 321 321 322 322 323 324 324 324 323 321 321 314 299 302 313 311 308 304 305 303 301 302 301 299 297 294 296 294 292 293 293 293 293
326 326 325 325 324 322 322 321 320 320 322 322 321 321 320 321 321 321 322 323 323 321 321 320 320 305 300 303 312 310 306 304 303 303 303 302 302 300 297 296 293 290 289 288 292 293 293
326 325 324 324 324 323 322 322 321 320 321 321 320 319 320 320 320 320 322 322 320 320 321 320 306 299 298 309 305 305 304 302 301 301 302 303 300 295 295 290 287 287 286 285 289 293 292
326 325 324 323 323 322 322 321 320 320 321 320 319 319 319 320 320 320 322 322 318 315 315 313 307 299 299 297 300 301 301 302 299 299 298 297 293 290 287 288 284 285 284 285 286 290 290
326 325 323 323 322 322 321 320 320 321 320 320 319 319 320 320 320 322 320 310 304 301 303 301 299 298 297 299 301 299 301 299 297 295 290 291 289 287 289 289 288 287 285 286 287 290 290
326 324 323 323 322 321 320 320 321 321 321 319 318 319 320 320 321 322 318 306 303 303 299 305 303 299 299 299 295 296 301 295 292 288 290 288 286 290 290 289 288 286 285 285 287 289 289
324 325 323 323 322 321 321 320 320 321 321 319 319 319 320 320 321 319 314 309 305 303 298 301 303 302 302 300 296 295 299 294 289 287 287 286 289 290 290 287 286 285 285 284 286 287 288
323 324 323 322 322 321 320 320 320 320 319 319 319 319 319 319 316 316 312 316 306 304 291 294 297 300 298 299 295 298 298 295 290 289 287 287 290 290 286 286 287 283 287 287 286 285 283
318 319 322 322 321 320 320 319 319 319 318 318 319 319 319 320 311 312 312 307 304 302 280 294 294 299 297 298 295 294 296 295 290 290 290 290 288 287 287 288 288 287 288 286 286 284 283
318 317 319 321 321 320 320 320 319 319 318 318 318 318 318 318 315 311 307 305 304 291 281 290 292 291 293 291 291 292 293 295 293 289 288 289 290 290 290 289 289 288 287 285 283 282 277
316 318 317 318 318 320 320 320 320 319 319 318 318 318 317 320 313 308 308 304 292 285 293 288 288 289 290 288 289 290 289 287 287 284 284 286 288 288 289 286 286 285 284 279 278 276 278
314 315 318 317 317 317 320 320 320 319 319 318 318 317 317 319 313 309 307 298 286 291 290 289 288 288 288 288 287 287 286 285 287 285 283 283 282 288 290 288 286 284 285 280 275 275 278
313 313 315 317 317 317 317 319 319 318 318 317 317 316 316 318 313 312 303 291 290 291 294 289 288 285 284 286 287 285 285 285 289 288 287 282 283 286 287 288 289 284 282 286 280 270 275
312 312 313 317 317 316 316 316 318 318 317 317 314 313 312 319 314 311 299 294 294 297 293 290 289 289 284 285 285 284 283 287 288 290 291 288 283 286 286 288 288 286 288 282 280 273 270
311 311 311 315 316 316 315 315 315 317 317 316 313 306 314 319 313 306 294 294 298 299 297 292 291 289 286 285 286 283 285 286 289 288 292 289 288 284 286 285 285 285 283 283 284 281 275
308 310 310 310 314 315 314 314 316 317 317 314 311 301 315 317 301 302 297 296 300 301 300 297 294 292 290 289 286 285 285 288 291 291 288 291 287 280 283 285 286 285 285 285 281 278 277
306 308 309 309 309 310 314 315 315 316 316 314 306 305 315 313 295 296 299 299 300 298 300 298 296 295 294 290 288 287 286 292 292 292 289 291 285 278 281 284 284 283 284 285 284 282 277
304 306 309 308 308 308 309 314 315 316 316 312 300 294 299 306 306 300 296 296 296 301 299 299 296 296 292 291 294 288 288 291 291 292 296 296 286 284 284 283 284 282 283 284 285 278 280
303 304 306 307 306 307 307 308 310 311 310 305 298 293 295 294 295 300 300 297 295 295 300 300 294 296 295 291 291 291 290 289 290 294 292 293 285 283 284 284 284 284 283 282 282 285 283
302 302 305 307 305 305 305 306 306 306 306 297 292 291 293 291 294 295 297 297 295 297 295 294 295 296 297 295 295 291 292 289 289 289 289 290 286 283 280 283 283 281 283 283 285 285 284
303 302 303 304 306 304 304 304 304 304 303 294 293 294 294 292 290 291 293 295 296 299 295 298 297 297 294 297 295 291 295 293 293 289 288 288 283 284 282 278 281 280 282 282 283 283 285
302 303 302 302 304 305 304 303 302 303 300 296 293 294 290 285 289 289 290 293 292 296 294 290 295 295 289 292 293 292 288 288 290 286 290 285 284 285 273 276 274 279 276 283 284 284 281
301 302 303 303 302 305 304 304 302 302 301 295 294 292 289 285 287 285 288 289 290 289 286 287 286 286 293 290 285 282 281 283 280 278 283 285 284 277 275 275 278 277 276 279 280 279 280
300 301 301 303 302 304 305 304 303 301 300 295 293 295 290 285 285 288 285 286 284 283 282 281 284 285 288 285 283 279 276 279 276 275 279 283 285 284 274 273 272 275 276 278 279 275 276
299 300 301 302 302 302 304 305 304 301 299 293 292 295 290 285 285 287 285 285 287 285 281 281 282 284 284 282 279 278 276 279 275 273 273 276 276 279 276 275 277 276 275 278 273 277 274
298 299 300 300 302 302 303 304 304 302 299 292 289 293 290 284 284 285 286 286 285 285 282 280 282 281 281 281 280 278 277 276 275 273 274 275 275 274 275 273 273 277 276 276 279 277 276
297 298 299 300 301 302 302 303 304 303 300 295 286 291 290 283 283 287 288 288 288 291 284 282 283 280 283 280 280 277 274 273 274 273 274 275 279 276 278 277 277 279 279 280 280 278 277
Wind_Speed
16 15 15 15 15 15 14 13 11 10 9 6 5 4 3 4 5 6 7 7 8 9 10 11 10 10 3 4 5 0 2 3 2 2 3 3 3 3 4 4 2 2 1 2 2 5 4
18 17 16 16 15 17 15 14 13 11 10 8 7 6 5 5 5 5 7 8 10 10 10 9 8 7 2 3 2 2 4 4 2 3 2 3 6 4 5 3 3 2 1 5 6 3 3
20 19 18 18 17 15 16 15 15 12 10 9 8 7 6 6 5 5 6 8 10 12 10 8 5 1 3 10 2 2 2 2 1 3 4 1 5 3 4 4 0 2 3 7 4 0 3
22 21 20 19 18 17 15 15 16 15 11 9 8 8 7 6 6 6 5 7 9 8 4 3 1 0 6 1 2 3 3 3 3 4 5 2 4 6 4 4 6 2 4 3 2 1 1
24 24 22 21 19 18 18 16 15 15 12 10 10 9 8 7 6 6 6 9 6 2 1 3 1 2 7 2 3 2 2 5 4 3 6 4 7 4 4 5 5 6 3 4 8 2 1
26 25 24 22 20 20 18 17 17 17 13 12 11 9 8 7 6 5 7 7 2 2 2 1 1 2 2 4 3 3 2 5 5 4 4 7 6 4 3 4 6 7 4 5 5 1 2
27 26 25 24 23 21 19 19 19 18 16 14 11 10 9 7 6 4 2 2 2 2 1 9 5 2 4 2 1 2 2 5 4 7 5 2 4 9 13 9 3 6 4 6 3 2 3
27 28 28 26 25 24 23 21 20 19 17 15 14 12 10 8 7 5 3 2 3 2 6 7 4 4 3 5 4 2 4 6 4 5 5 5 8 8 4 4 4 4 4 6 5 3 3
22 29 29 27 26 25 24 22 21 20 18 15 13 12 11 9 7 4 3 5 2 1 2 7 6 6 5 8 5 9 8 4 5 6 8 8 4 7 8 5 6 5 7 4 6 3 2
14 29 31 28 25 24 25 22 22 21 18 14 15 14 12 10 5 6 4 7 5 1 3 8 6 6 4 7 3 1 3 5 2 11 8 6 2 6 4 5 7 5 9 6 4 3 4
10 16 23 27 25 24 23 21 23 22 19 18 17 16 15 17 6 5 4 7 8 4 6 4 3 2 3 6 8 2 0 4 9 8 8 7 7 5 5 8 7 7 6 7 4 4 2
13 12 15 16 26 26 26 25 25 24 21 20 20 18 17 11 2 2 6 7 3 5 14 4 4 6 7 2 2 3 3 4 4 5 0 4 1 6 8 2 5 9 7 6 4 4 1
18 14 13 14 8 26 27 27 26 25 23 22 22 21 16 8 6 8 6 4 3 11 0 7 6 7 3 6 3 5 7 6 8 7 7 1 5 3 4 6 2 1 6 0 2 0 7
19 19 16 14 16 9 23 27 26 25 24 24 23 21 17 9 7 14 3 5 14 8 10 2 6 6 8 7 4 5 7 7 6 3 4 8 5 12 8 8 9 7 7 7 8 5 4
19 19 20 19 16 15 12 27 28 27 26 25 23 11 9 12 13 9 8 15 16 9 9 12 4 5 5 5 6 5 7 7 10 13 10 7 6 1 2 4 6 6 6 2 6 3 3
17 19 21 17 18 16 14 11 28 29 28 27 11 10 14 18 16 12 11 26 13 7 9 4 18 10 14 9 9 9 11 8 8 14 2 7 3 0 3 3 3 5 6 4 2 1 5
21 18 18 20 17 15 13 14 14 26 29 30 12 8 12 20 14 11 17 19 21 4 6 8 13 11 7 11 10 8 10 2 8 9 10 6 4 1 4 8 12 5 3 3 4 5 6
19 16 14 15 11 14 13 16 18 19 28 23 11 13 15 20 17 11 20 25 10 17 11 10 4 7 11 13 11 10 14 10 10 13 14 9 5 5 8 2 1 3 8 8 6 6 3
18 22 11 10 10 13 10 14 12 14 24 9 9 5 14 16 17 16 17 18 24 11 17 17 18 9 5 12 8 9 9 6 11 14 15 11 4 2 6 2 2 6 6 4 4 4 9
16 18 14 5 9 8 9 10 10 9 15 8 4 6 3 13 13 27 20 21 28 15 13 11 6 7 6 11 9 9 10 5 7 6 8 11 6 10 15 7 7 7 7 6 8 5 5
17 16 20 5 4 3 5 9 4 8 7 4 2 1 3 9 9 19 23 16 22 22 19 19 7 25 21 13 14 13 6 5 2 5 2 9 9 6 4 3 4 7 8 11 12 13 12
16 15 14 10 5 3 2 4 5 7 7 4 3 4 0 2 3 6 13 25 29 26 17 13 24 21 21 24 23 16 15 8 9 4 6 3 5 5 4 3 2 4 9 11 15 11 11
16 14 11 17 8 5 3 4 3 3 5 2 2 1 1 4 3 2 6 10 11 25 7 13 22 18 22 24 3 4 5 6 9 12 8 9 8 5 6 3 4 9 15 17 8 7 12
18 16 13 11 17 9 6 5 2 6 5 1 2 2 3 3 9 7 5 2 1 9 12 2 3 14 4 13 9 8 10 10 6 6 3 9 8 4 4 4 9 1 1 7 16 9 6
18 18 16 12 13 10 10 8 7 6 8 3 1 2 1 2 2 4 6 5 5 6 3 3 3 2 11 6 4 4 2 2 2 6 3 1 6 5 7 7 7 4 6 10 10 10 11
22 20 16 16 12 11 10 10 11 8 7 3 2 2 2 2 4 4 4 4 3 3 3 2 3 4 3 3 3 7 7 6 5 2 4 2 2 5 3 5 11 3 2 5 5 8 8
20 21 18 16 15 13 10 14 14 12 8 3 3 2 3 2 2 2 2 4 5 3 3 3 3 2 3 3 3 3 4 1 7 10 7 4 2 8 5 4 6 5 5 4 7 7 4
22 20 20 15 18 15 14 12 17 18 14 5 2 0 3 0 2 4 4 4 3 2 4 4 4 0 1 2 3 3 3 5 4 4 7 8 9 4 2 2 9 8 4 9 6 1 6
22 20 20 18 18 18 16 14 15 21 20 7 3 1 1 3 2 2 3 3 2 1 6 3 1 3 3 3 1 3 3 1 3 4 2 4 7 8 10 7 2 14 3 4 4 7 7
Wind_Direction
222 226 215 228 235 233 230 233 232 230 233 242 248 257 274 299 313 323 328 334 337 341 343 341 334 342 7 22 253 308 59 104 105 67 93 118 95 124 129 131 107 108 316 208 267 274 246
222 223 225 218 229 234 233 233 238 233 237 236 237 252 265 279 292 310 324 333 336 336 331 329 326 327 88 245 121 93 119 107 121 100 101 107 164 175 112 112 137 165 265 278 272 192 215
219 219 221 223 221 225 231 232 235 235 236 232 233 242 256 266 283 302 324 332 332 323 317 316 311 311 111 239 92 114 89 77 121 138 130 135 138 103 126 119 2 102 319 328 272 146 221
220 217 219 223 220 216 220 222 232 239 229 229 231 243 251 262 277 296 319 329 327 330 338 11 112 258 239 51 155 103 113 63 55 40 99 98 98 99 76 116 28 59 50 359 272 154 356
220 219 215 214 221 218 216 215 222 234 225 222 226 233 247 254 267 289 313 319 316 352 110 341 315 157 263 145 138 133 114 137 85 42 42 74 65 89 46 94 20 6 239 220 316 228 105
221 219 216 215 215 222 215 214 218 224 216 221 219 225 233 246 256 278 297 304 277 338 272 288 12 19 157 209 140 118 48 100 108 99 49 47 55 83 49 111 219 201 216 245 227 211 168
220 219 215 212 210 215 216 219 216 215 213 209 214 222 221 226 237 252 344 5 2 296 236 195 196 211 128 85 100 60 141 90 92 61 146 9 118 210 199 197 135 137 174 231 220 258 177
233 220 214 211 208 210 211 212 215 214 211 214 211 216 215 207 213 189 118 205 224 143 307 227 228 271 173 177 114 191 129 129 140 157 120 52 228 211 131 149 148 134 179 248 294 225 163
272 225 216 213 208 209 206 203 213 215 214 207 196 202 202 197 194 165 191 224 135 155 260 281 192 184 192 148 201 191 145 142 134 136 187 167 210 142 144 157 161 201 198 197 220 355 251
316 226 214 210 207 210 210 195 207 212 208 200 194 193 191 175 171 144 218 220 171 109 293 259 218 240 121 147 200 76 183 140 141 187 159 230 259 164 166 198 147 207 194 179 175 101 238
306 306 239 205 203 205 214 199 204 207 200 196 192 190 187 182 136 172 213 134 130 68 282 226 164 124 137 158 134 340 182 46 160 168 139 235 168 170 186 208 171 222 135 160 133 152 81
287 288 292 252 208 209 208 209 205 203 196 195 192 188 181 196 174 191 135 118 112 67 244 191 130 160 125 121 84 118 117 51 128 114 223 243 261 171 198 122 168 149 84 60 61 111 230
336 274 267 277 289 210 209 208 203 201 195 190 192 189 182 174 195 147 144 120 115 213 340 191 183 170 150 150 149 151 160 166 158 132 215 183 218 203 148 92 58 151 109 79 340 316 225
331 322 261 250 258 258 226 207 204 200 195 188 193 187 198 201 154 140 127 117 217 205 205 103 121 110 177 155 194 167 133 178 244 117 127 167 263 168 188 184 177 187 177 168 204 197 224
326 322 322 236 243 251 256 219 205 200 195 187 182 197 200 191 163 155 171 202 220 158 164 141 95 128 222 216 149 146 199 194 196 184 184 167 270 154 131 149 140 197 215 175 99 56 64
317 324 331 265 230 237 247 279 207 198 192 183 190 201 203 176 169 173 201 218 221 168 126 129 200 172 176 190 159 187 176 195 207 188 208 206 139 309 156 108 34 163 166 95 3 212 268
327 320 343 329 224 227 238 259 261 205 192 181 196 211 169 167 168 201 207 222 220 177 140 167 206 190 188 168 187 201 204 211 200 187 175 152 142 201 126 208 174 151 199 70 125 150 190
316 311 339 350 309 224 227 239 255 222 201 192 198 216 164 153 198 207 211 209 206 205 202 233 198 174 173 173 183 207 202 217 160 145 175 194 135 168 204 313 319 196 181 161 164 217 225
316 329 315 341 339 355 259 242 254 255 206 205 217 173 171 171 203 202 214 223 220 191 201 212 216 191 170 176 213 184 190 200 166 159 169 173 194 99 338 331 341 217 192 139 96 68 195
312 317 308 318 327 345 357 248 216 253 201 196 148 181 189 193 198 205 200 213 216 207 222 208 190 160 160 204 217 197 196 202 188 194 162 149 158 193 225 191 142 183 188 178 165 173 186
297 315 320 228 280 336 29 29 62 128 88 100 92 175 291 190 222 208 199 198 213 211 219 195 215 208 199 213 204 214 157 149 175 203 147 149 210 171 230 149 171 182 168 180 195 214 211
289 290 301 289 208 249 124 85 47 27 116 86 134 154 219 359 13 225 197 209 209 211 176 207 221 198 210 211 196 200 175 181 179 190 170 125 198 146 193 154 194 246 213 186 203 215 241
288 295 297 303 221 188 215 109 91 32 17 88 131 308 143 166 152 199 247 232 238 212 225 237 209 221 212 225 200 356 171 118 148 161 158 164 148 142 206 108 109 264 215 190 194 194 193
286 287 283 288 303 202 197 152 114 89 71 101 109 142 130 201 195 196 198 242 252 242 202 125 163 181 137 119 94 52 52 43 74 33 115 145 142 154 130 145 218 234 37 187 204 214 180
279 279 286 266 268 279 194 175 128 101 98 80 111 115 126 162 168 154 178 156 92 42 56 97 59 29 151 69 96 118 54 89 58 25 32 29 142 145 162 205 337 172 197 159 162 246 182
280 272 277 270 263 253 234 191 160 143 139 97 75 69 90 127 208 112 138 141 142 141 91 61 4 24 89 128 153 165 174 145 188 61 357 1 40 194 142 188 205 258 164 136 105 274 220
291 273 267 266 256 250 251 214 179 160 161 113 109 144 102 169 169 167 168 155 132 121 93 122 136 61 3 132 134 162 159 112 164 165 163 120 62 215 174 217 277 212 192 156 136 246 182
281 274 266 265 258 248 239 237 197 177 162 114 126 158 122 102 160 173 184 139 110 125 138 152 116 1 81 180 146 176 130 190 121 136 178 151 158 184 116 211 260 155 60 166 195 21 148
270 278 267 263 260 248 239 231 224 190 169 129 108 159 98 123 151 242 211 167 113 222 125 179 69 150 153 112 107 104 108 154 128 204 309 204 179 177 190 204 345 181 129 198 171 147 190